• en France
  • Liste des pays
  • À 7 jours
  • Température de l'eau
  • Carte satellitaire
  • Carte météo
  • Widgets météo
  • user-avatar
    Se connecter

    Météo par heure à Makoua

    Ce jour, 27 Mai, Dimanche

    Heure Température Précipitation Vent Pression Humidité
    00:00 +23°C° 0,2 mm 0 m/s 726 mmHg 87%
    01:00 +23°C° 0,2 mm 0 m/s 726 mmHg 91%
    02:00 +23°C° 0,2 mm 0 m/s 726 mmHg 92%
    03:00 +22°C° 0,2 mm 0 m/s 726 mmHg 93%
    04:00 +22°C° 0,2 mm 0 m/s 726 mmHg 94%
    05:00 +22°C° 0,1 mm 0 m/s 726 mmHg 93%
    06:00 +23°C° 0,1 mm 0 m/s 727 mmHg 92%
    07:00 +23°C° 0,1 mm 0 m/s 727 mmHg 91%
    08:00 +25°C° 0,3 mm 0 m/s 728 mmHg 83%
    09:00 +27°C° 0,3 mm 0 m/s 728 mmHg 75%
    10:00 +30°C° 0,3 mm 0 m/s 728 mmHg 67%
    11:00 +31°C° 0,8 mm 0 m/s 728 mmHg 62%
    12:00 +33°C° 0,8 mm 1 m/s 727 mmHg 57%
    13:00 +34°C° 0,8 mm 1 m/s 727 mmHg 52%
    14:00 +34°C° 0 mm 1 m/s 726 mmHg 52%
    15:00 +33°C° 0 mm 1 m/s 726 mmHg 52%
    16:00 +33°C° 0 mm 1 m/s 725 mmHg 52%
    17:00 +31°C° 0,4 mm 1 m/s 725 mmHg 61%
    18:00 +29°C° 0,4 mm 1 m/s 726 mmHg 71%
    19:00 +27°C° 0,4 mm 1 m/s 726 mmHg 80%
    20:00 +26°C° 0,5 mm 1 m/s 726 mmHg 83%
    21:00 +26°C° 0,5 mm 1 m/s 727 mmHg 86%
    22:00 +25°C° 0,5 mm 1 m/s 728 mmHg 89%
    23:00 +25°C° 0,3 mm 1 m/s 727 mmHg 90%

    Demain, 28 Mai, Lundi

    Heure Température Précipitation Vent Pression Humidité
    00:00 +25°C° 0,3 mm 1 m/s 727 mmHg 92%
    01:00 +24°C° 0,3 mm 1 m/s 727 mmHg 93%
    02:00 +24°C° 0,7 mm 1 m/s 727 mmHg 94%
    03:00 +24°C° 0,7 mm 1 m/s 727 mmHg 95%
    04:00 +24°C° 0,7 mm 1 m/s 727 mmHg 95%
    05:00 +24°C° 0,6 mm 1 m/s 727 mmHg 95%
    06:00 +24°C° 0,6 mm 1 m/s 728 mmHg 94%
    07:00 +25°C° 0,6 mm 1 m/s 728 mmHg 93%
    08:00 +27°C° 0,1 mm 1 m/s 729 mmHg 84%
    09:00 +29°C° 0,1 mm 1 m/s 729 mmHg 75%
    10:00 +30°C° 0,1 mm 2 m/s 729 mmHg 66%
    11:00 +32°C° 0,2 mm 1 m/s 728 mmHg 59%
    12:00 +34°C° 0,2 mm 1 m/s 728 mmHg 52%
    13:00 +35°C° 0,2 mm 1 m/s 727 mmHg 45%
    14:00 +34°C° 0,1 mm 1 m/s 726 mmHg 51%
    15:00 +32°C° 0,1 mm 1 m/s 726 mmHg 58%
    16:00 +29°C° 0,1 mm 0 m/s 725 mmHg 64%
    17:00 +27°C° 1 mm 0 m/s 725 mmHg 71%
    18:00 +26°C° 1 mm 0 m/s 726 mmHg 79%
    19:00 +24°C° 1 mm 0 m/s 726 mmHg 86%
    20:00 +26°C° 1,8 mm 1 m/s 727 mmHg 88%
    21:00 +26°C° 1,8 mm 1 m/s 727 mmHg 90%
    22:00 +25°C° 1,8 mm 1 m/s 728 mmHg 92%
    23:00 +25°C° 0,4 mm 1 m/s 728 mmHg 93%

    Après-demain, 29 Mai, Mardi

    Heure Température Précipitation Vent Pression Humidité
    00:00 +25°C° 0,4 mm 1 m/s 727 mmHg 93%
    01:00 +24°C° 0,4 mm 1 m/s 727 mmHg 94%
    02:00 +24°C° 0,2 mm 1 m/s 727 mmHg 94%
    03:00 +24°C° 0,2 mm 1 m/s 726 mmHg 95%
    04:00 +24°C° 0,2 mm 1 m/s 726 mmHg 95%
    05:00 +24°C° 0 mm 1 m/s 726 mmHg 95%
    06:00 +24°C° 0 mm 1 m/s 727 mmHg 94%
    07:00 +24°C° 0 mm 1 m/s 727 mmHg 94%
    08:00 +26°C° 0 mm 1 m/s 728 mmHg 87%
    09:00 +28°C° 0 mm 1 m/s 728 mmHg 80%
    10:00 +29°C° 0 mm 1 m/s 729 mmHg 73%
    11:00 +30°C° 0,3 mm 1 m/s 728 mmHg 69%
    12:00 +32°C° 0,3 mm 2 m/s 727 mmHg 64%
    13:00 +34°C° 0,3 mm 2 m/s 726 mmHg 60%
    14:00 +32°C° 1,5 mm 1 m/s 726 mmHg 65%
    15:00 +31°C° 1,5 mm 1 m/s 725 mmHg 70%
    16:00 +30°C° 1,5 mm 1 m/s 725 mmHg 75%
    17:00 +29°C° 0,7 mm 1 m/s 725 mmHg 80%
    18:00 +28°C° 0,7 mm 1 m/s 726 mmHg 85%
    19:00 +24°C° 0,7 mm 0 m/s 726 mmHg 89%
    20:00 +26°C° 0,9 mm 1 m/s 727 mmHg 91%
    21:00 +25°C° 0,9 mm 1 m/s 727 mmHg 92%
    22:00 +25°C° 0,9 mm 1 m/s 727 mmHg 94%
    23:00 +25°C° 0 mm 1 m/s 727 mmHg 94%

    30 Mai, Mercredi

    Heure Température Précipitation Vent Pression Humidité
    00:00 +25°C° 0 mm 1 m/s 727 mmHg 94%
    01:00 +24°C° 0 mm 1 m/s 726 mmHg 94%
    02:00 +24°C° 0 mm 1 m/s 726 mmHg 95%
    03:00 +24°C° 0 mm 1 m/s 726 mmHg 95%
    04:00 +24°C° 0 mm 1 m/s 726 mmHg 95%
    05:00 +24°C° 0 mm 1 m/s 726 mmHg 94%
    06:00 +24°C° 0 mm 1 m/s 727 mmHg 93%
    07:00 +23°C° 0 mm 0 m/s 728 mmHg 92%
    08:00 +26°C° 0,1 mm 1 m/s 728 mmHg 86%
    09:00 +27°C° 0,1 mm 1 m/s 729 mmHg 79%
    10:00 +29°C° 0,1 mm 1 m/s 729 mmHg 72%
    11:00 +29°C° 1,7 mm 1 m/s 728 mmHg 75%
    12:00 +29°C° 1,7 mm 1 m/s 727 mmHg 77%
    13:00 +29°C° 1,7 mm 1 m/s 727 mmHg 80%
    14:00 +29°C° 0,3 mm 1 m/s 726 mmHg 77%
    15:00 +30°C° 0,3 mm 1 m/s 726 mmHg 73%
    16:00 +30°C° 0,3 mm 1 m/s 726 mmHg 70%
    17:00 +29°C° 0 mm 1 m/s 726 mmHg 75%
    18:00 +27°C° 0 mm 1 m/s 726 mmHg 80%
    19:00 +24°C° 0 mm 0 m/s 727 mmHg 86%
    20:00 +24°C° 0,1 mm 0 m/s 727 mmHg 87%
    21:00 +23°C° 0,1 mm 0 m/s 728 mmHg 89%
    22:00 +23°C° 0,1 mm 0 m/s 728 mmHg 90%
    23:00 +23°C° 0 mm 0 m/s 728 mmHg 91%

    31 Mai, Jeudi

    Heure Température Précipitation Vent Pression Humidité
    00:00 +23°C° 0 mm 0 m/s 727 mmHg 92%
    01:00 +22°C° 0 mm 0 m/s 727 mmHg 93%
    02:00 +22°C° 0 mm 0 m/s 727 mmHg 92%
    03:00 +22°C° 0 mm 0 m/s 727 mmHg 92%
    04:00 +22°C° 0 mm 0 m/s 726 mmHg 92%
    05:00 +22°C° 0 mm 0 m/s 727 mmHg 90%
    06:00 +23°C° 0 mm 0 m/s 727 mmHg 88%
    07:00 +23°C° 0 mm 0 m/s 727 mmHg 87%
    08:00 +26°C° 0 mm 0 m/s 728 mmHg 75%
    09:00 +28°C° 0 mm 0 m/s 728 mmHg 64%
    10:00 +31°C° 0 mm 0 m/s 728 mmHg 53%
    11:00 +33°C° 0 mm 0 m/s 728 mmHg 48%
    12:00 +34°C° 0 mm 0 m/s 727 mmHg 43%
    13:00 +36°C° 0 mm 0 m/s 726 mmHg 39%
    14:00 +35°C° 0 mm 0 m/s 726 mmHg 41%
    15:00 +36°C° 0 mm 1 m/s 725 mmHg 43%
    16:00 +35°C° 0 mm 1 m/s 725 mmHg 45%
    17:00 +33°C° 0 mm 1 m/s 725 mmHg 52%
    18:00 +29°C° 0 mm 0 m/s 726 mmHg 59%
    19:00 +27°C° 0 mm 0 m/s 726 mmHg 66%
    20:00 +26°C° 0 mm 0 m/s 727 mmHg 68%
    21:00 +26°C° 0 mm 0 m/s 727 mmHg 71%
    22:00 +25°C° 0 mm 0 m/s 727 mmHg 74%
    23:00 +24°C° 0,1 mm 0 m/s 727 mmHg 78%

    1 Juin, Vendredi

    Heure Température Précipitation Vent Pression Humidité
    00:00 +26°C° 0,1 mm 1 m/s 727 mmHg 82%
    01:00 +25°C° 0,1 mm 1 m/s 726 mmHg 87%
    02:00 +25°C° 0 mm 1 m/s 726 mmHg 88%
    03:00 +25°C° 0 mm 1 m/s 726 mmHg 89%
    04:00 +24°C° 0 mm 1 m/s 726 mmHg 90%
    05:00 +25°C° 0 mm 1 m/s 726 mmHg 89%
    06:00 +25°C° 0 mm 1 m/s 727 mmHg 87%
    07:00 +26°C° 0 mm 1 m/s 727 mmHg 86%
    08:00 +28°C° 0,1 mm 1 m/s 728 mmHg 76%
    09:00 +31°C° 0,1 mm 1 m/s 728 mmHg 66%
    10:00 +34°C° 0,1 mm 1 m/s 728 mmHg 56%
    11:00 +34°C° 0,1 mm 1 m/s 728 mmHg 51%
    12:00 +35°C° 0,1 mm 1 m/s 727 mmHg 47%
    13:00 +36°C° 0,1 mm 1 m/s 726 mmHg 42%
    14:00 +35°C° 0 mm 1 m/s 726 mmHg 46%
    15:00 +35°C° 0 mm 1 m/s 725 mmHg 50%
    16:00 +34°C° 0 mm 1 m/s 725 mmHg 54%
    17:00 +32°C° 0 mm 1 m/s 725 mmHg 59%
    18:00 +29°C° 0 mm 0 m/s 726 mmHg 65%
    19:00 +27°C° 0 mm 0 m/s 726 mmHg 70%
    20:00 +26°C° 0,6 mm 0 m/s 726 mmHg 75%
    21:00 +25°C° 0,6 mm 0 m/s 727 mmHg 79%
    22:00 +24°C° 0,6 mm 0 m/s 727 mmHg 84%
    23:00 +26°C° 0,8 mm 1 m/s 727 mmHg 87%
    Voir plus